Tracking 20715 objects as of 27-May-2020
HD Live streaming from Space Station
objects crossing your sky now

COSMOS 1375 DEB

Track COSMOS 1375 DEB now!
10-day predictions


NORAD ID: 16383
Int'l Code: 1982-055X
Perigee: 957.0 km
Apogee: 1,027.4 km
Inclination: 65.8 °
Period: 104.8 minutes
Semi major axis: 7363 km
RCS: 0.1937 m2 (medium)
Launch date: June 6, 1982
Source: Commonwealth of Independent States (former USSR) (CIS)
Launch site: PLESETSK MISSILE AND SPACE COMPLEX (PKMTR)

Note: This is SATELLITE DEBRIS
aabbcc
Your satellite tracking list
Your tracking list is empty




NASA's NSSDC Master Catalog

Two Line Element Set (TLE):
1 16383U 82055X   20146.98189201 -.00000037 +00000-0 +45596-4 0  9996
2 16383 065.8311 347.5215 0047859 352.6458 156.0539 13.74050389730852
Source of the keplerian elements: AFSPC